Location: Luxembourg
(49.6117°N, 6.1300°E)
Time: 19:13:05
(UTC+01:00)

BlueWalker 3 - Pass Details

Date: 16 October 2024
Orbit: 470 x 482 km, 53.2° (Epoch: 08 November)

Event Time Altitude Azimuth Distance (km) Brightness Sun altitude
Exits shadow 05:11:06 28° 53° (NE) 911 3.8 -27.6°
Drops below altitude 10° 05:13:07 10° 70° (ENE) 1,634 5.5 -27.3°
Sets 05:15:20 0° 77° (ENE) 2,513 6.8 -27.0°
